Location: Guardianu Point
(39.4500°N, 8.4167°E)
Time: 00:22:42
(UTC+00:00)

Daily predictions for brighter satellites

Satellite Brightness Start Highest point End
(mag) Time Altitude Azimuth Time Altitude Azimuth Time Altitude Azimuth
Cosmos 2333 Rocket 4.3 01:25:50 23° NE 01:25:50 23° NE 01:27:55 10° NNE
Cosmos 2360 Rocket 4.3 01:35:08 20° N 01:35:08 20° N 01:36:53 10° NNE
Cosmos 2219 Rocket 3.7 01:53:01 31° NNE 01:53:01 31° NNE 01:55:52 10° NNE
ADEOS II 4.2 01:46:26 10° N 01:48:05 21° N 01:48:05 21° N
Cosmos 2278 Rocket 4.1 02:05:56 10° N 02:10:45 27° ENE 02:15:31 10° ESE
USA 229 DEB 3.9 02:17:34 56° N 02:17:34 56° N 02:23:07 10° NNE
USA 229 3.9 02:17:39 57° N 02:17:39 57° N 02:23:14 10° NNE
COSMOS 2428 3.4 02:26:57 46° N 02:26:57 46° N 02:31:00 10° NNE
IDEFIX/ARIANE 42P 3.9 02:32:24 10° N 02:35:13 30° NNW 02:35:13 30° NNW
Cosmos 1110 Rocket 4.3 02:38:09 62° E 02:38:09 62° E 02:43:14 10° NNE
NOSS 3-1 (A) 4.1 02:39:09 39° NNW 02:39:09 39° NNW 02:43:59 10° NNE
Cosmos 1980 4.0 02:40:22 57° SE 02:40:56 60° ESE 02:46:30 10° NNE
Meteor 1-26 Rocket 4.3 02:41:43 67° SE 02:42:08 71° E 02:47:36 10° NNE
Meteor 2-8 Rocket 4.3 02:48:23 76° SSW 02:48:53 85° W 02:55:00 10° N
Cosmos 1741 Rocket 4.1 02:44:23 10° NNW 02:49:41 75° ENE 02:54:54 10° SSE
CZ-4B R/B 4.0 02:44:52 10° NNE 02:49:57 58° ESE 02:51:18 44° SSE
Cosmos 2237 Rocket 2.4 02:49:49 57° SSE 02:50:46 68° ESE 02:56:26 10° NNE
PAYLOAD A 4.3 02:48:19 10° NNE 02:52:56 56° E 02:53:49 48° SE
Meteor 2-16 Rocket 4.3 02:49:54 10° NNW 02:55:48 65° W 02:55:48 65° W
Cosmos 1850 Rocket 3.9 02:51:58 10° NNW 02:57:15 88° WSW 03:02:33 10° SSE
CZ-2C R/B 2.9 02:52:48 10° NNE 02:57:58 62° E 02:59:51 37° SSE
Meteor 2-15 4.3 02:56:36 50° S 02:58:19 90° ENE 03:04:26 10° N
Cosmos 2333 Rocket 3.7 03:07:52 22° NW 03:07:52 22° NW 03:11:24 10° N
Meteor 1-25 Rocket 4.3 03:01:54 10° NNW 03:07:22 55° W 03:07:22 55° W
Aureole 1 Rocket 4.4 03:04:17 10° N 03:08:44 38° ENE 03:12:12 10° SE
Cosmos 1782 4.3 03:11:03 27° NNW 03:11:03 27° NNW 03:13:00 10° N
MSX 4.5 03:04:31 10° N 03:09:18 37° WNW 03:09:18 37° WNW
Cosmos 1812 2.8 03:14:44 71° NNE 03:14:44 71° NNE 03:18:12 10° N
IRS-1C 4.5 03:14:16 10° N 03:19:17 43° WNW 03:19:22 43° WNW
ALOS 2.4 03:15:23 10° NNE 03:20:02 70° E 03:23:00 22° S
CZ-2C R/B 3.3 03:16:59 10° NNE 03:20:56 59° E 03:22:43 29° S
Cosmos 1655 Rocket 4.0 03:15:40 10° NNW 03:21:42 54° W 03:25:30 23° SSW
Meteor 2-6 Rocket 4.4 03:17:10 11° S 03:22:18 70° E 03:27:51 10° NNE
SL-24 DEB 4.2 03:20:57 10° N 03:25:43 68° W 03:27:23 39° SSW
Cosmos 1340 Rocket 3.6 03:23:55 10° NNW 03:26:28 35° NW 03:26:28 35° NW
CZ-4C R/B 2.3 03:25:34 27° S 03:28:02 59° ESE 03:33:25 10° NE
Cosmos 1302 Rocket 4.0 03:24:49 23° S 03:28:05 78° ESE 03:33:21 10° NNE
ARIANE 5 R/B 2.8 03:23:32 10° N 03:28:18 42° WNW 03:28:42 41° W
SL-08 R/B 3.3 03:28:31 48° SW 03:29:08 52° W 03:33:37 10° NNW
Meteor 1-14 Rocket 4.1 03:25:19 10° N 03:31:08 83° W 03:36:46 10° S
Cosmos 1331 Rocket 4.3 03:31:59 41° W 03:32:57 45° WNW 03:37:55 10° N
Cosmos 2219 Rocket 3.9 03:34:46 16° NW 03:34:52 16° NW 03:38:18 10° NNW
Cosmos 1470 Rocket 3.8 03:31:41 10° N 03:36:09 71° E 03:40:30 10° SSE
FENGYUN 3A 3.5 03:31:21 10° N 03:36:44 74° WNW 03:41:00 16° SSW
Cosmos 1666 Rocket 3.7 03:35:31 10° NNW 03:39:38 45° W 03:40:37 38° SW
Cosmos 1484 Rocket 3.1 03:36:17 10° NNE 03:39:59 63° E 03:43:38 10° S
Cosmos 1328 Rocket 3.6 03:39:10 39° SW 03:40:25 53° W 03:44:40 10° N
PSLV R/B 3.7 03:39:00 10° NNE 03:43:18 76° E 03:47:36 10° S
SL-8 R/B 4.1 03:42:13 26° SSW 03:44:44 58° SE 03:49:29 10° ENE
Cosmos 1553 Rocket 4.4 03:38:47 10° S 03:44:49 63° E 03:51:00 10° NNE
H-2A ROCKET BODY 4.2 03:41:35 16° SW 03:47:17 23° S 03:51:07 10° SE
Cosmos 2266 Rocket 4.4 03:42:06 10° NNW 03:47:36 36° W 03:52:46 11° SSW
Cosmos 1544 4.4 03:49:14 10° N 03:52:44 42° E 03:56:13 10° SSE
Cosmos 2278 Rocket 2.5 03:49:38 10° NW 03:54:57 42° WSW 04:00:14 10° S
SL-16 R/B 2.3 03:52:39 10° SSW 03:58:18 83° ESE 04:04:00 10° NNE
Meteor 1-5 Rocket 4.2 03:57:15 10° NNW 04:02:23 51° W 04:07:29 10° S
Cosmos 1666 3.1 03:59:00 10° NNW 04:02:31 38° W 04:06:02 10° SSW
Cosmos 1943 Rocket 3.4 03:57:08 10° N 04:02:36 45° ENE 04:08:00 10° SE
Cosmos 1151 Rocket 4.3 04:02:58 22° W 04:03:26 22° WNW 04:06:51 10° NNW
Meteor 1-11 Rocket 4.1 03:57:43 10° N 04:03:41 73° E 04:09:30 10° SSE
Meteor 1-10 Rocket 4.2 04:02:05 10° SSW 04:07:36 64° W 04:13:15 10° N
GPS 2-04 Rocket1 3.3 04:06:00 22° SW 04:08:10 45° S 04:12:02 10° E
Cosmos 968 Rocket 3.5 04:04:03 10° NNW 04:09:20 86° ENE 04:14:32 10° SSE
Cosmos 1818 4.0 04:05:45 10° SSW 04:11:08 66° ESE 04:16:34 10° NE
Cosmos 2228 Rocket 3.5 04:09:43 10° S 04:14:11 69° E 04:18:44 10° NNE
COSMO-SKYMED 1 4.1 04:11:36 10° SE 04:15:39 40° ENE 04:19:43 10° N
SL-08 ROCKET BODY 4.3 04:10:27 10° NNW 04:16:16 70° W 04:22:04 10° S
SL-24 R/B - RUBIN 2 4.5 04:13:16 10° SW 04:19:22 57° NW 04:25:00 10° NNE
X-37B 0.9 04:18:17 15° SW 04:20:42 59° SSE 04:23:50 10° ENE
Cosmos 1417 Rocket 4.4 04:14:33 10° S 04:20:45 82° W 04:26:56 10° N
MOS 1 Rocket 4.5 04:18:57 10° SW 04:22:18 20° W 04:25:34 10° NW
Cosmos 1633 Rocket 4.4 04:20:11 10° NW 04:23:16 19° W 04:26:21 10° SW
Landsat 5 4.2 04:20:05 10° SSE 04:23:59 55° ENE 04:27:48 10° N
Cosmos 1536 2.7 04:22:18 10° N 04:26:18 88° W 04:30:15 10° S
Cosmos 1515 Rocket 4.4 04:24:43 10° SW 04:28:29 29° WNW 04:32:16 10° NNW
Meteor 1-31 Rocket 3.2 04:25:46 10° NNE 04:29:39 66° E 04:33:30 10° S
Cosmos 2237 Rocket 3.7 04:31:41 11° W 04:35:22 19° NW 04:39:17 10° N
CZ-2C R/B 4.1 04:32:26 10° NNW 04:35:37 17° WNW 04:38:46 10° W
Cosmos 1486 Rocket 4.0 04:34:23 10° NNW 04:39:43 78° WSW 04:45:02 10° SSE
Meteor 1-27 Rocket 3.9 04:34:50 10° SSW 04:40:33 56° WNW 04:46:22 10° N
H-2A R/B 4.1 04:39:40 10° SE 04:43:44 34° ENE 04:47:46 10° N
S3M 4.1 04:40:54 10° SSW 04:47:12 64° W 04:53:29 10° N
